Location: Cactus School
(34.5700°N, 118.0931°W)
Time: 08:48:21
(UTC-07:00)

S-56A Canister/Altair - Pass Details

Date: 16 April 2024
Orbit: 638 x 2488 km, 38.9° (Epoch: 29 May)

Event Time Altitude Azimuth Distance (km) Brightness Sun altitude
Rises 19:54:11 0° 267° (W) 3,527 12.5 -6.5°
Reaches altitude 10° 19:56:23 10° 270° (W) 2,758 11.8 -6.9°
Maximum altitude 20:03:06 69° 354° (N) 1,389 8.9 -8.2°
Drops below altitude 10° 20:13:32 10° 77° (ENE) 4,160 10.8 -10.2°
Enters shadow 20:15:51 - 79° (ENE) 4,894 11.1 -10.7°
Sets 20:17:36 0° 80° (E) 5,434 - -11.0°
